sat.trackr.live / text

‹ back to catalog

STARLINK-35833

NORAD 66542 · 2025-265AC

PAYLOAD ACTIVE UNKNOWN

§ Identity

Operator
Country
US
Launch date
2025-11-19
Launch site
AFETR
Launch vehicle
Mass (kg)
RCS (m²)

Purposes: comms

External: N2YO · Heavens-Above · Gunter

§ Orbital elements

Epoch: 2026-05-24T21:38:08.775744Z

Period
94.27 min
Inclination
43.0025°
Eccentricity
0.0002040
Mean motion
15.27589455 rev/d
Perigee alt
481.6 km
Apogee alt
484.4 km
Semi-major
6,861.2 km
B*
3.5872e-4
RAAN
207.9991°
Arg perigee
291.8589°
Mean anomaly
68.2045°
Rev number
2,876

§ Raw data

STARLINK-358331 66542U 25265AC  26144.90149046  .00009625  00000+0  35872-3 0  99922 66542  43.0025 207.9991 0002040 291.8589  68.2045 15.27589455 28763

JSON: /api/v1/satellites/66542 · /tle

For live sub-satellite position, see the globe view (requires WebGL).

§ Visibility from observer

Set your observer location to see the next 7 days of passes ≥ 10°. The values pass through the URL so the page stays shareable.

No JS? Fill the form by hand. The geolocation button needs JavaScript.